Regional Weather Roundup
Issued by NWS

Home | Current Version | Previous Version | Graphics & Text | Print | Product List | Glossary On
Versions: 1 2 3 4 5 6 7 8 9 10 11 12 13 14 15 16 17 18 19 20 21 22 23 24 25 26 27 28 29 30 31 32 33 34 35 36 37 38 39 40 41 42 43 44 45 46 47 48 49 50
762
ASUS45 KTFX 250110
RWRMT
MONTANA REGIONAL WEATHER ROUNDUP
NATIONAL WEATHER SERVICE GREAT FALLS MT
700 PM MDT TUE APR 24 2018

NOTE: "FAIR" INDICATES FEW OR NO CLOUDS BELOW 12000 FEET WITH NO
SIGNIFICANT WEATHER AND/OR OBSTRUCTIONS TO VISIBILITY.

MTZ001>007-043-250200-
WEST OF THE DIVIDE

CITY           SKY/WX    TMP DP  RH WIND       PRES   REMARKS
KALISPELL      FAIR      63  21  20 S10       30.22F
MISSOULA       FAIR      66  23  19 S10       30.22F
BUTTE          FAIR      55  27  34 SE7       30.33F
MULLAN PASS    FAIR      55   9  16 CALM      30.28F
ANACONDA         N/A     57  10  15 SE10      30.29F
DEER LODGE       N/A     61  16  17 S8        30.29F
HAMILTON         N/A     64  19  17 MISG      30.24F
PLAINS           N/A     70  33  25 CALM      30.18F
RONAN            N/A     64  25  22 N5        30.23F
$$

MTZ008-052>055-250200-
SOUTHWEST MONTANA

CITY           SKY/WX    TMP DP  RH WIND       PRES   REMARKS
BOZEMAN        FAIR      55  30  38 CALM      30.34F
DILLON         FAIR      52  23  32 W5        30.34F
ENNIS          SUNNY     50  23  34 S10       30.38F
W YELLOWSTONE  FAIR      48  12  23 NW3       30.35F
THREE FORKS      N/A     54  32  43 S1        30.30F
TWIN BRIDGES     N/A     56  23  27 S2        30.29F
$$

MTZ009-010-012-014-046-048-049-054-250200-
EAST SLOPES AND CENTRAL MONTANA

CITY           SKY/WX    TMP DP  RH WIND       PRES   REMARKS
CUT BANK       FAIR      63  13  14 W14       30.16F
GREAT FALLS    FAIR      62  18  18 SW16      30.22F
MALMSTROM AFB  FAIR      62  22  21 S21       30.21F
HELENA         FAIR      61  25  25 E17       30.27F
AUGUSTA        FAIR      61  11  14 SW14      30.20F
BOWMANS CRNR   FAIR      57  25  29 S22       30.20F
CHOTEAU          N/A     66   3   8 S15       30.19F
FAIRFIELD      FAIR      62  22  21 S20       30.18F
POWER          FAIR      62  14  15 S17       30.20F
RAYNESFORD     FAIR      62  14  15 S12       30.24F
ULM            FAIR      62  15  16 S18       30.22F
WHITE SULPHUR    N/A     50  25  37 SE15      30.31F
$$

MTZ011-013-016-021-045-047-050-051-250200-
NORTH CENTRAL MONTANA

CITY           SKY/WX    TMP DP  RH WIND       PRES   REMARKS
HAVRE          FAIR      65  18  16 SW16      30.19F
LEWISTOWN      FAIR      57  17  21 SW10      30.27F
N BAR RANCH    FAIR      52  21  30 SW14      30.31F
CHINOOK          N/A     68  25  19 S7        30.19F
GEYSER         FAIR      61  19  19 CALM      30.23F
GRASS RANGE    FAIR      56  23  27 S6        30.24F
STANFORD       FAIR      60  20  21 NW6       30.25F
$$

MTZ017>020-022>027-061-062-250200-
NORTHEAST MONTANA

CITY           SKY/WX    TMP DP  RH WIND       PRES   REMARKS
GLASGOW        FAIR      62  26  25 S12       30.26F
GLENDIVE       FAIR      55  33  43 S15       30.34F
JORDAN           N/A     58  32  37 SW15      30.31F
MALTA          SUNNY     61  32  33 S17       30.22F
SIDNEY         FAIR      59  27  29 SW9       30.31F
WOLF POINT     FAIR      62  26  25 SW10      30.29F
PLENTYWOOD       N/A     61  25  25 SW14      30.26F
SCOBEY           N/A     59  23  25 S15       30.24F
$$

MTZ028>42-056>058-250200-
SOUTHCENTRAL AND SOUTHEAST MONTANA

CITY           SKY/WX    TMP DP  RH WIND       PRES   REMARKS
BAKER          FAIR      49  31  49 SW6       30.39F
BILLINGS       FAIR      53  25  33 SW8       30.35F
LIVINGSTON     FAIR      54  30  40 NW5       30.33F
MILES CITY     FAIR      54  31  41 W13       30.36F
BIG TIMBER     SUNNY     48  34  57 SE7       30.35F
FORSYTH          N/A     55  34  44 S7        30.35F
HARLOWTON      FAIR      51  30  45 SW8       30.33F
$$

REGIONAL REPORTS...DAKOTAS

CITY           SKY/WX    TMP DP  RH WIND       PRES   REMARKS
WILLISTON      FAIR      61  22  22 W9        30.30F
MINOT          FAIR      58  17  20 SW7       30.30F
DICKINSON      FAIR      52  30  43 SW13      30.34F
BEACH          FAIR      52  30  43 SW12      30.38F
CROSBY         FAIR      59  27  29 SW10      30.27F
TIOGA          FAIR      55  25  30 SW9       30.31F
WATFORD CITY   FAIR      57  28  33 SW12      30.31F
BISMARCK       FAIR      56  23  27 NW9       30.35F
GRAND FORKS    FAIR      48  28  46 NE7       30.33S
FARGO          FAIR      49  30  48 N14       30.33S
BUFFALO SD       N/A     51  23  33 W9        30.33F
RAPID CITY     FAIR      47  23  38 N12       30.40F
$$

REGIONAL REPORTS...WYOMING/IDAHO/WASHINGTON

CITY           SKY/WX    TMP DP  RH WIND       PRES   REMARKS
GILLETTE       FAIR      47  24  40 CALM      30.40F
SHERIDAN       FAIR      51  25  36 S5        30.38F
BUFFALO WY     FAIR      47  23  38 E5        30.40F
CODY           FAIR      50  17  27 SE6       30.39F
YELLOWSTONE LA   N/A     39   8  27 CALM      30.42F
IDAHO FALLS    FAIR      58  32  37 N9        30.32F
SALMON         FAIR      63  21  20 NW6       30.27F
BOISE          FAIR      68  28  22 SE8       30.20F
SPOKANE        FAIR      69  27  20 SE3       30.17F
$$

REGIONAL REPORTS...ALBERTA

CITY           SKY/WX    TMP DP  RH WIND       PRES   REMARKS
CALGARY        CLOUDY    64  10  12 SW5       30.05F
CARDSTON         N/A     64  14  14 W13G20      N/A
EDMONTON       SUNNY     63  32  31 N6        29.96F
FORT MCMURRAY  MOSUNNY   61  25  25 W17G26    29.85F
HIGH LEVEL     MOSUNNY   55  23  28 NW9G23    29.91F
LLOYDMINSTER   CLOUDY    63  27  25 W8        29.98F
MEDICINE HAT   PTSUNNY   70  18  13 S18G29    30.07F
MILK RIVER       N/A     68  14  12 SW16        N/A
ONEFOUR          N/A     64  19  17 S13         N/A
PEACE RIVER    PTSUNNY   52  30  43 W13       29.98F
PINCHER CREEK  MOSUNNY   63  19  19 W22       30.14F
WATERTON GATE    N/A     57  18  21 SW21G30     N/A
$$

REGIONAL REPORTS...SASKATCHEWAN

CITY           SKY/WX    TMP DP  RH WIND       PRES   REMARKS
CORONACH         N/A     59  21  23 SW13        N/A
CYPRESS HILLS    N/A     55  16  21 SW14G20     N/A
ESTEVAN        MOCLDY    59  27  29 SW7       30.24F
MOOSE JAW        N/A     63  21  20 SW13        N/A
PRINCE ALBERT  PTSUNNY   64  28  25 SW13      29.99F
REGINA         CLOUDY    63  25  23 SW14      30.18F
ROCKGLEN         N/A     57  21  24 SW16        N/A
SASKATOON      PTSUNNY   64  28  25 SW12      30.05F
SWIFT CURRENT  MOSUNNY   61  23  23 SW14G23   30.14F
VAL MARIE        N/A     61  25  25 SW15        N/A
$$




USA.gov is the U.S. government's official web portal to all federal, state and local government web resources and services.